AirNav   Everest Fuels
 
 1112 users online  

24CA Mesa Heliport
Pasadena, California, USA

GOING TO PASADENA?


FAA INFORMATION EFFECTIVE 25 MARCH 2021

Location

FAA Identifier: 24CA
Lat/Long: 34-12-20.4800N 118-10-25.3500W
34-12.341333N 118-10.422500W
34.2056889,-118.1737083
(estimated)
Elevation: 1520 ft. / 463 m (estimated)
Variation: 14E (1985)
From city: 4 miles N of PASADENA, CA
Time zone: UTC -7 (UTC -8 during Standard Time)
Zip code: 91011

Heliport Operations

Heliport use: Private use. Permission required prior to landing
Activation date: 03/1981
Control tower: no
ARTCC: LOS ANGELES CENTER
FSS: HAWTHORNE FLIGHT SERVICE STATION
Attendance: UNATNDD
Wind indicator: yes
Segmented circle: no

Heliport Communications

WX ASOS at BUR (9 nm W): PHONE 818-841-1384
WX AWOS-3PT at EMT (10 nm SE): 118.75 ((626) 444-1107)
WX AWOS-3PT at WHP (12 nm W): 132.1 (818-899-9820)
WX ASOS at VNY (16 nm W): PHONE 818-904-9213
WX ASOS at SMO (18 nm SW): PHONE 310-392-6453
WX ASOS at HHR (19 nm SW): PHONE 310-973-8930
WX AWOS-3PT at CPM (19 nm S): 127.150 (310-631-4958)
WX ASOS at LAX (20 nm SW): PHONE 310-568-1486

Nearby radio navigation aids

VOR radial/distance  VOR name  Freq  Var
VNYr079/15.8VAN NUYS VOR/DME113.1015E
SMOr035/18.3SANTA MONICA VOR/DME110.8015E
POMr277/20.7POMONA VORTAC110.4015E
LAXr023/20.8LOS ANGELES VORTAC113.6015E
SLIr332/26.0SEAL BEACH VORTAC115.7015E
PMDr177/26.1PALMDALE VORTAC114.5015E
LHSr130/34.9LAKE HUGHES VORTAC114.3515E
FIMr089/36.2FILLMORE VORTAC112.5015E
PDZr283/36.3PARADISE VORTAC112.2015E
ELBr311/38.7EL TORO VOR/DME117.2014E
RALr279/(39.0)RIVERSIDE VOR112.4014E

Heliport Services

Runway Information

Helipad H1

Dimensions: 50 x 50 ft. / 15 x 15 m
Surface: asphalt
Latitude: 34-12.341333N
Longitude: 118-10.422500W
Elevation: 1520.0 ft.
Traffic pattern: leftleft

Heliport Ownership and Management from official FAA records

Ownership: Publicly-owned
Owner: NASA/CA. INSTITUTE OF TECH
4800 OAK GROVE DRIVE
PASADENA, CA 91109
JET PROPULSION LABORATORY.
Manager: WILLIAM MICHAEL
4800 OAK GROVE DRIVE;180-300
PASADENA, CA 91109
Phone (818) 354-4091

Additional Remarks

A52-H1 STORAGE BLDG 35' SW OF PAD.
EMERG USE ONLY, PRIOR PERMISSION REQUIRED
FOR CD CTC LOS ANGELES ARTCC AT 661-575-2079.

Instrument Procedures

There are no published instrument procedures at 24CA.

Some nearby airports with instrument procedures:

KBUR - Bob Hope Airport (9 nm W)
KEMT - San Gabriel Valley Airport (10 nm SE)
KWHP - Whiteman Airport (12 nm W)
KVNY - Van Nuys Airport (16 nm W)
KSMO - Santa Monica Municipal Airport (18 nm SW)
KHHR - Jack Northrop Field/Hawthorne Municipal Airport (19 nm SW)
KLAX - Los Angeles International Airport (20 nm SW)
 
Loc | Ops | Rwys | IFR | FBO | Links
Com | Nav | Svcs | Stats | Notes

San Bernardino International Airport Authority
 
Area around 24CA (Mesa Heliport)
 
Road maps at: MapQuest Bing Google
 
Aerial photo
No photo
 
Sectional chart

 
Airport distance calculator
Flying to Mesa Heliport? Find the distance to fly.

From to 24CA

Sunrise and sunset
Times for 17-Apr-2021
 Local
(UTC-7)
 Zulu
(UTC)
Morning civil twilight05:5412:54
Sunrise06:2013:20
Sunset19:2502:25
Evening civil twilight19:5102:51

Current date and time
Zulu (UTC)  17-Apr-2021 13:50:59
Local (UTC-7)  17-Apr-2021 06:50:59
 
METAR
KBUR 
10nm W 
171326Z 00000KT 10SM CLR 11/07 A2995 RMK AO2 T01060072 $
KCQT 
10nm S 
171331Z AUTO 00000KT 8SM OVC015 14/10 A2995 RMK AO2 T01390100
KEMT 
11nm SE 
170245Z 21006KT 10SM CLR 18/09 A2992
KWHP 
12nm W 
170250Z 11004KT 10SM SKC 15/09 A2995
KVNY 
15nm W 
171251Z AUTO 00000KT 10SM FEW014 11/08 A2994 RMK AO2 SLP133 T01110078
KSMO 
18nm SW 
171325Z AUTO 05003KT 8SM BKN021 11/08 A2996 RMK AO2 T01060083
KHHR 
19nm SW 
171253Z 00000KT 10SM OVC016 13/09 A2996 RMK AO2 SLP144 T01280094
KLAX 
19nm SW 
171253Z 03003KT 10SM FEW012 SCT019 SCT200 12/09 A2995 RMK AO2 SLP142 T01170089
TAF
KBUR 
10nm W 
171128Z 1712/1812 VRB03KT P6SM SKC FM171900 18010KT P6SM SKC FM180500 VRB03KT P6SM SKC
KVNY 
15nm W 
171128Z 1712/1812 VRB03KT P6SM SKC FM172000 14008KT P6SM SKC FM180400 VRB03KT P6SM SKC FM180800 35006KT P6SM SKC
KSMO 
18nm SW 
171128Z 1712/1812 VRB03KT P6SM FEW011 OVC020 FM171700 VRB03KT P6SM SCT012 FM171900 23008KT P6SM SKC FM180300 VRB03KT P6SM SKC
KLAX 
19nm SW 
171128Z 1712/1818 VRB03KT P6SM BKN012 FM171700 25006KT P6SM SCT015 FM172000 26012KT P6SM SKC FM180300 25006KT P6SM SKC FM180600 VRB03KT P6SM SKC
NOTAMs
Click for the latest NOTAMs
NOTAMs are issued by the DoD/FAA and will open in a separate window not controlled by AirNav.

 

 
 

Would you like to see your business listed on this page?

 If your business provides an interesting product or service to pilots, flight crews, aircraft, or users of the Mesa Heliport, you should consider listing it here.  To start the listing process, click on the button below
 
Add a business
 

Other Pages about Mesa Heliport

Update a link
 
Copyright © AirNav, LLC. All rights reserved. Privacy Policy  Contact